Location: Ago
(8.4667°N, 4.4833°E)
Time: 23:01:16
(UTC+00:00)

Cosmos 2150 Rocket - Pass Details

Date: 18 September 2020
Orbit: 748 x 808 km, 74.0° (Epoch: 20 October)

Event Time Altitude Azimuth Distance (km) Brightness Sun altitude
Rises 18:34:37 0° 187° (S) 3,217 7.3 -14.3°
Reaches altitude 10° 18:36:59 10° 184° (S) 2,300 6.5 -14.9°
Maximum altitude 18:42:10 67° 102° (ESE) 839 3.9 -16.1°
Drops below altitude 10° 18:47:26 10° 20° (NNE) 2,337 6.3 -17.4°
Sets 18:49:51 0° 18° (NNE) 3,274 7.1 -18.0°
